Regional Weather Roundup
Issued by NWS

Home | Current Version | Previous Version | Text Only | Print | Product List | Glossary Off
Versions: 1 2 3 4 5 6 7 8 9 10 11 12 13 14 15 16 17 18 19 20 21 22 23 24 25 26 27 28 29 30 31 32 33 34 35 36 37 38 39 40 41 42 43 44 45 46 47 48 49 50

000
ASUS43 KMPX 270610
RWRMN
WEATHER ROUNDUP FOR MINNESOTA
NATIONAL WEATHER SERVICE TWIN CITIES/CHANHASSEN MN
100 AM CDT MON APR 27 2015


NOTE: "FAIR" INDICATES FEW OR NO CLOUDS BELOW 12,000 FEET WITH NO
SIGNIFICANT WEATHER AND/OR OBSTRUCTIONS TO VISIBILITY. N/A MEANS
CURRENT SKY AND/OR WEATHER CONDITIONS ARE NOT AVAILABLE.

MNZ060>063-068>070-270700-
   Twin Cities Metro

CITY           SKY/WX    TMP DP  RH WIND       PRES   REMARKS
TWIN CITIES    CLEAR     50  24  36 E5        30.17R
6HR MIN TEMP:  49; 6HR MAX TEMP:  62;

ST PAUL        CLEAR     45  26  47 CALM      30.18R
CRYSTAL        CLEAR     44  26  49 CALM      30.16R
BLAINE         CLEAR     43  27  52 CALM      30.17R
LAKEVILLE      CLEAR     43  27  52 CALM      30.16S
EDEN PRAIRIE   CLEAR     48  25  40 E6        30.16R
6HR MIN TEMP:  48; 6HR MAX TEMP:  61;

SOUTH ST PAUL  CLEAR     46  25  44 CALM      30.17R
LAKE ELMO      FAIR      41  28  60 CALM      30.17S
$$
MNZ001>005-007-008-013>017-022>024-027-028-270700-
   Northwest Minnesota

CITY           SKY/WX    TMP DP  RH WIND       PRES   REMARKS
BEMIDJI        CLEAR     34  23  65 CALM      30.18R
HALLOCK        PTCLDY    45  23  42 SE8       30.16R
ROSEAU         PTCLDY    39  28  65 CALM      30.18S
WARROAD        PTCLDY    39  30  70 CALM      30.19R
THIEF RVR FALL CLEAR     48  21  34 SE5       30.17S
CROOKSTON      CLEAR     43  25  49 SE7       30.17S
FOSSTON        CLEAR     37  25  60 S3        30.19R
DETROIT LAKES  CLEAR     45  30  57 CALM      30.18S
MOORHEAD       CLEAR     45  25  45 E5        30.17S
PARK RAPIDS    CLEAR     37  26  64 CALM      30.17R
MAHNOMEN       FAIR      46  22  38 SE5       30.17S
$$
MNZ006-009>011-018-025>026-270700-
   North Central Minnesota

CITY           SKY/WX    TMP DP  RH WIND       PRES   REMARKS
BAUDETTE       CLEAR     37  30  75 CALM      30.18S
FLAG ISLAND    CLEAR     43  34  70 CALM      30.18S
INTL FALLS     CLEAR     29  22  75 CALM      30.19R
6HR MIN TEMP:  27; 6HR MAX TEMP:  58;

WASKISH        CLEAR     34  27  75 CALM      30.19R
BIG FORK       CLEAR     28  21  74 CALM      30.19R
LONGVILLE      CLEAR     30  27  86 CALM        N/A
GRAND RAPIDS   CLEAR     36  18  48 CALM      30.18S
CRANE LAKE     CLEAR     27  25  93 CALM      30.21S
ORR            CLEAR     30  23  74 CALM      30.16S
COOK           CLEAR     28  23  80 CALM      30.19R
WALKER         FAIR      35  17  47 CALM      30.18R
$$
MNZ012-019>021-037-270700-
   Northeast Minnesota

CITY           SKY/WX    TMP DP  RH WIND       PRES   REMARKS
DULUTH         CLEAR     35  23  61 CALM      30.17S
6HR MIN TEMP:  33; 6HR MAX TEMP:  50;

ELY            CLEAR     30  25  80 CALM      30.18R
HIBBING        CLEAR     28  19  69 CALM      30.18S
EVELETH        CLEAR     32  27  80 CALM      30.19S
DULUTH HARBOR  CLEAR     37  30  75 CALM      30.21R
TWO HARBORS    CLEAR     30  25  80 CALM      30.17S
SILVER BAY     CLEAR     28  25  86 CALM      30.17S
GRAND MARAIS     N/A     36  27  69 CALM      30.19R
G MARAIS ARPRT CLEAR     34  21  60 CALM      30.18S
$$
MNZ029>031-032-039>041-046>048-054>057-064-270700-
   West Central Minnesota

CITY           SKY/WX    TMP DP  RH WIND       PRES   REMARKS
FERGUS FALLS   CLEAR     46  21  36 E3        30.18S
WHEATON        CLEAR     39  23  52 SE5       30.19R
MORRIS         CLEAR     43  21  42 E3        30.17R
ALEXANDRIA     CLEAR     41  22  46 N3        30.18R
ELBOW LAKE     FAIR      46  32  58 E5        30.17R
WADENA         CLEAR     36  25  64 CALM      30.17R
GLENWOOD       CLEAR     45  19  36 CALM      30.18R
APPLETON       CLEAR     39  27  60 N3        30.16S
BENSON         CLEAR     39  23  52 CALM      30.17R
ORTONVILLE     CLEAR     48  19  32 E6        30.16S
MADISON        CLEAR     43  21  42 E3        30.16S
WILLMAR        FAIR      43  28  56 E3        30.17S
$$
MNZ033>034-036-042>043-049>051-058-059-270700-
   Central Minnesota

CITY           SKY/WX    TMP DP  RH WIND       PRES   REMARKS
ST CLOUD       CLEAR     37  24  59 E3        30.17R
6HR MIN TEMP:  37; 6HR MAX TEMP:  61;

SAUK CENTRE    FAIR      38  27  63 N3        30.17S
PAYNESVILLE    CLEAR     33  28  83 CALM      30.17S
AITKIN         CLEAR     32  21  64 CALM      30.17R
PINE RIVER     CLEAR     36  27  69 CALM      30.21R
BRAINERD       CLEAR     33  24  69 CALM      30.17S
STAPLES        CLEAR     37  27  65 CALM      30.17S
LONG PRAIRIE   FAIR      36  28  75 N3        30.18R
LITTLE FALLS   CLEAR     34  27  75 CALM      30.18R
LITCHFIELD     CLEAR     45  28  53 CALM      30.17R
BUFFALO        CLEAR     39  28  64 CALM      30.18R
MAPLE LAKE     CLEAR     38  30  70 CALM      30.18R
$$
MNZ037-044-045-052-053-270700-
   East Central Minnesota

CITY           SKY/WX    TMP DP  RH WIND       PRES   REMARKS
PRINCETON      CLEAR     36  27  69 CALM      30.18R
MORA           CLEAR     32  27  80 CALM      30.19S
CAMBRIDGE      CLEAR     37  25  60 CALM      30.16R
RUSH CITY      PTCLDY    36  25  64 CALM      30.18R
MOOSE LAKE     CLEAR     32  27  80 CALM      30.17S
HINCKLEY       FAIR      34  23  64 N5        30.18R WCI  30
CLOQUET        CLEAR     28  21  74 CALM      30.18S
MCGREGOR       CLEAR     34  27  75 CALM      30.19R
$$
MNZ071>073-080-081-089-090-097-098-270700-
   Southwest Minnesota

CITY           SKY/WX    TMP DP  RH WIND       PRES   REMARKS
MONTEVIDEO     CLEAR     43  21  42 CALM      30.17R
GRANITE FALLS  CLEAR     42  21  43 CALM      30.18R
CANBY          CLEAR     36  30  79 CALM      30.18R
MARSHALL       CLEAR     43  21  42 SW5       30.16R
REDWOOD FALLS  CLEAR     49  21  33 E5        30.15R
OLIVIA         CLEAR     37  19  48 NE3       30.15S
PIPESTONE      CLEAR     45  21  39 E2        30.16R
WORTHINGTON    CLEAR     41  21  45 CALM      30.17R
JACKSON        CLEAR     43  21  42 CALM      30.15R
TRACY          CLEAR     42  19  40 CALM      30.16R
SLAYTON        CLEAR     42  19  39 CALM      30.17R
$$
MNZ065>067-074>077-082>085-091>093-270700-
   South Central Minnesota

CITY           SKY/WX    TMP DP  RH WIND       PRES   REMARKS
MANKATO        CLEAR     48  27  43 NE9       30.15S
NEW ULM        CLEAR     46  19  34 NE5       30.15R
ST JAMES       CLEAR     43  21  42 CALM      30.15R
FAIRMONT       CLEAR     43  23  45 CALM      30.14R
GLENCOE        CLEAR     43  30  59 CALM      30.15S
FARIBAULT      CLEAR     45  27  49 N5        30.15S
OWATONNA       CLEAR     45  23  42 NE6       30.14S
WASECA         CLEAR     45  25  45 NE8       30.16R
ALBERT LEA     CLEAR     39  30  70 NE5       30.14R
$$
MNZ078>079-086>088-094>096-270700-
   Southeast Minnesota

CITY           SKY/WX    TMP DP  RH WIND       PRES   REMARKS
ROCHESTER      CLEAR     44  26  49 NE10      30.13S
6HR MIN TEMP:  43; 6HR MAX TEMP:  57;

RED WING       CLEAR     46  23  39 CALM      30.15R
STANTON        CLEAR     43  27  53 NE3       30.14S
DODGE CENTER   PTCLDY    46  27  46 NE8       30.13S
WINONA         CLEAR     48  30  49 CALM      30.14R
AUSTIN         CLEAR     45  28  53 NE3       30.12S
PRESTON        CLEAR     43  25  49 N5        30.13R
$$
ABBREVIATIONS USED IN REMARKS
   TC - TEMPERATURES IN CELSIUS
  WCI - WIND CHILL INDEX
   HX - HEAT INDEX
  VSB - VISIBILITY
$$



USA.gov is the U.S. government's official web portal to all federal, state and local government web resources and services.